DRAGON CRS-25 (53113 NORAD) Tracking and Keplerian Element Data

This shows tracking and keplerian element data for the satellite.

Feedback or suggestion? Click here.




ElementValue
Catalog53113
NameDRAGON CRS-25
Epoch Orbit570
Epoch Day232.69763193
Epoch Year2022
RAAN16.6944
Inclination51.6431
Eccentricity0.0142034
Argument of Perigee170.8482
Mean Anonmoly203.225
Mean Motion15.95320457
Decay Rate0.00430966
L11 53113U 22081A 22232.69763193 .00430966 11203-4 35930-3 0 9993
L22 53113 51.6431 16.6944 0142034 170.8482 203.2250 15.95320457 5706

Live tracking and technical data element details for DRAGON CRS-25 (NORAD 53113). DRAGON CRS-25 can be tracked NOW for your location showing map with azimuth and elevation plus other details from your city location.

Track the satellite on the map from your city or location and see movement details for azimuth, elevation, latitude, longitude, range, height, and movement on the map or in text.







IsCatalogInMostPopularTable: catalog: 53113, numindb: 6
Update: records affected: 1



GetName: 53113 DRAGON CRS-25

Hit Count: updated at: Wed, 05 Oct 2022 09:04:27 GMT